| time (UTC) | temp F | wind direction | speed knots | gust knots | rain 1hr in | rain 24hr in | rain mn in | humidity % | barometer mb |
| 20260902021854 | 79 | 249 | 0.0 | 0.0 | 0.00 | 0.00 | 0.01 | ||
| 20260902021349 | 79 | 249 | 0.0 | 0.0 | 0.00 | 0.00 | 0.01 | ||
| 20260902020850 | 78 | 249 | 0.0 | 0.0 | 0.00 | 0.00 | 0.01 | ||
| 20260902020346 | 80 | 249 | 0.0 | 0.0 | 0.00 | 0.00 | 0.01 | ||
| 20260902015847 | 78 | 249 | 0.0 | 0.0 | 0.00 | 0.00 | 0.01 | ||
| 20260902015346 | 79 | 325 | 0.0 | 0.0 | 0.00 | 0.00 | 0.01 | ||
| 20260902014846 | 80 | 325 | 0.0 | 0.0 | 0.00 | 0.00 | 0.01 | ||
| 20260902014343 | 79 | 325 | 0.0 | 0.0 | 0.00 | 0.00 | 0.01 | ||
| 20260902013841 | 79 | 325 | 0.0 | 0.0 | 0.00 | 0.00 | 0.01 | ||
| 20260902013337 | 79 | 325 | 0.0 | 0.0 | 0.00 | 0.00 | 0.01 | ||
| 20260902012837 | 80 | 325 | 0.0 | 0.0 | 0.00 | 0.00 | 0.01 | ||
| 20260902012333 | 80 | 325 | 0.0 | 0.0 | 0.00 | 0.00 | 0.01 | ||
| 20260902011834 | 80 | 325 | 0.0 | 0.0 | 0.00 | 0.00 | 0.01 | ||
| 20260902011326 | 80 | 325 | 0.0 | 0.0 | 0.00 | 0.00 | 0.01 | ||
| 20260902010827 | 80 | 325 | 0.0 | 0.0 | 0.00 | 0.00 | 0.01 | ||
| 20260902010323 | 80 | 325 | 0.0 | 0.0 | 0.00 | 0.00 | 0.01 | ||
| 20260902005825 | 80 | 325 | 0.0 | 0.0 | 0.00 | 0.00 | 0.01 | ||
| 20260902005318 | 81 | 325 | 0.0 | 0.0 | 0.00 | 0.00 | 0.01 | ||
| 20260902004824 | 81 | 325 | 0.0 | 0.0 | 0.00 | 0.00 | 0.01 | ||
| 20260902004317 | 81 | 325 | 0.0 | 0.0 | 0.00 | 0.00 | 0.01 | ||
| 20260902003818 | 81 | 325 | 0.0 | 0.0 | 0.00 | 0.00 | 0.01 | ||
| 20260902003314 | 81 | 325 | 0.0 | 0.0 | 0.00 | 0.00 | 0.01 | ||
| 20260902002814 | 81 | 325 | 0.0 | 0.0 | 0.00 | 0.00 | 0.01 | ||
| 20260902001812 | 82 | 325 | 0.0 | 0.0 | 0.00 | 0.00 | 0.01 | ||
| 20260902001310 | 82 | 93 | 0.0 | 0.9 | 0.00 | 0.00 | 0.01 | ||
| 20260902000811 | 82 | 93 | 0.0 | 0.0 | 0.00 | 0.00 | 0.01 | ||
| 20260902000309 | 83 | 93 | 0.0 | 0.0 | 0.00 | 0.00 | 0.01 | ||
| 20260901235810 | 82 | 93 | 0.0 | 0.0 | 0.00 | 0.00 | 0.01 | ||
| 20260901235307 | 83 | 93 | 0.0 | 0.0 | 0.00 | 0.00 | 0.01 | ||
| 20260901234806 | 83 | 93 | 0.0 | 0.0 | 0.00 | 0.00 | 0.01 | ||
| 20260901234303 | 83 | 93 | 0.0 | 0.0 | 0.00 | 0.00 | 0.01 | ||
| 20260901233802 | 83 | 93 | 0.0 | 0.0 | 0.00 | 0.00 | 0.01 | ||
| 20260901233300 | 83 | 93 | 0.0 | 0.0 | 0.00 | 0.00 | 0.01 | ||
| 20260901232258 | 83 | 122 | 1.7 | 3.5 | 0.00 | 0.00 | 0.01 | ||
| 20260901231255 | 84 | 101 | 0.0 | 0.0 | 0.00 | 0.00 | 0.01 | ||
| 20260901230252 | 85 | 145 | 1.7 | 1.7 | 0.00 | 0.00 | 0.01 | ||
| 20260901225753 | 85 | 110 | 0.9 | 2.6 | 0.00 | 0.00 | 0.01 | ||
| 20260901225251 | 85 | 120 | 0.9 | 0.9 | 0.00 | 0.00 | 0.01 | ||
| 20260901224752 | 85 | 117 | 2.6 | 1.7 | 0.00 | 0.00 | 0.01 | ||
| 20260901224245 | 85 | 113 | 0.9 | 0.9 | 0.00 | 0.00 | 0.01 | ||
| 20260901223243 | 86 | 124 | 1.7 | 2.6 | 0.00 | 0.00 | 0.01 | ||
| 20260901222744 | 85 | 156 | 3.5 | 3.5 | 0.00 | 0.00 | 0.01 | ||
| 20260901222241 | 86 | 117 | 4.3 | 3.5 | 0.00 | 0.00 | 0.01 | ||
| 20260901221742 | 86 | 142 | 4.3 | 4.3 | 0.00 | 0.00 | 0.01 | ||
| 20260901221239 | 86 | 142 | 5.2 | 4.3 | 0.00 | 0.00 | 0.01 | ||
| 20260901220740 | 87 | 143 | 4.3 | 4.3 | 0.00 | 0.00 | 0.01 | ||
| 20260901214737 | 87 | 210 | 2.6 | 2.6 | 0.00 | 0.00 | 0.01 | ||
| 20260901213735 | 87 | 156 | 4.3 | 5.2 | 0.00 | 0.00 | 0.01 | ||
| 20260901213233 | 87 | 125 | 3.5 | 3.5 | 0.00 | 0.00 | 0.01 | ||
| 20260901212734 | 87 | 149 | 5.2 | 6.1 | 0.00 | 0.00 | 0.01 | ||
| 20260901212232 | 89 | 156 | 5.2 | 6.1 | 0.00 | 0.00 | 0.01 | ||
| 20260901211733 | 89 | 141 | 3.5 | 5.2 | 0.00 | 0.00 | 0.01 | ||
| 20260901210732 | 88 | 124 | 6.1 | 4.3 | 0.00 | 0.00 | 0.01 | ||
| 20260901210230 | 89 | 138 | 0.9 | 3.5 | 0.00 | 0.00 | 0.01 | ||
| 20260901204730 | 89 | 125 | 2.6 | 4.3 | 0.00 | 0.00 | 0.01 | ||
| 20260901204228 | 89 | 113 | 3.5 | 4.3 | 0.00 | 0.00 | 0.01 | ||
| 20260901202728 | 88 | 155 | 7.0 | 6.1 | 0.00 | 0.00 | 0.01 | ||
| 20260901202226 | 89 | 145 | 6.1 | 6.1 | 0.00 | 0.00 | 0.01 | ||
| 20260901201727 | 90 | 124 | 3.5 | 3.5 | 0.00 | 0.00 | 0.01 | ||
| 20260901201225 | 90 | 51 | 0.0 | 0.9 | 0.00 | 0.00 | 0.01 | ||
| 20260901200224 | 89 | 136 | 3.5 | 2.6 | 0.00 | 0.00 | 0.01 | ||
| 20260901195725 | 89 | 110 | 3.5 | 1.7 | 0.00 | 0.00 | 0.01 | ||
| 20260901195221 | 89 | 136 | 3.5 | 3.5 | 0.00 | 0.00 | 0.01 | ||
| 20260901194219 | 90 | 139 | 0.9 | 3.5 | 0.00 | 0.00 | 0.01 | ||
| 20260901193720 | 90 | 134 | 0.0 | 4.3 | 0.00 | 0.00 | 0.01 | ||
| 20260901193217 | 90 | 359 | 1.7 | 0.9 | 0.00 | 0.00 | 0.01 | ||
| 20260901192718 | 90 | 312 | 0.9 | 0.0 | 0.00 | 0.00 | 0.01 | ||
| 20260901192216 | 90 | 120 | 1.7 | 1.7 | 0.00 | 0.00 | 0.01 | ||
| 20260901191717 | 89 | 127 | 5.2 | 4.3 | 0.00 | 0.00 | 0.01 | ||
| 20260901191215 | 90 | 162 | 7.0 | 3.5 | 0.00 | 0.00 | 0.01 | ||
| 20260901190214 | 91 | 129 | 1.7 | 0.9 | 0.00 | 0.00 | 0.01 | ||
| 20260901185715 | 91 | 84 | 0.9 | 1.7 | 0.00 | 0.00 | 0.01 | ||
| 20260901185213 | 90 | 91 | 1.7 | 1.7 | 0.00 | 0.00 | 0.01 | ||
| 20260901184714 | 91 | 84 | 0.0 | 0.0 | 0.00 | 0.00 | 0.01 | ||
| 20260901184212 | 90 | 118 | 5.2 | 4.3 | 0.00 | 0.00 | 0.01 | ||
| 20260901183211 | 90 | 128 | 3.5 | 6.1 | 0.00 | 0.00 | 0.01 | ||
| 20260901182712 | 90 | 80 | 3.5 | 1.7 | 0.00 | 0.00 | 0.01 | ||
| 20260901182210 | 91 | 53 | 0.0 | 0.0 | 0.00 | 0.00 | 0.01 | ||
| 20260901181710 | 91 | 62 | 0.0 | 0.0 | 0.00 | 0.00 | 0.01 | ||
| 20260901181208 | 90 | 101 | 0.9 | 0.0 | 0.00 | 0.00 | 0.01 | ||
| 20260901180708 | 90 | 134 | 0.9 | 0.9 | 0.00 | 0.00 | 0.01 | ||
| 20260901180207 | 89 | 93 | 3.5 | 3.5 | 0.00 | 0.00 | 0.01 | ||
| 20260901174706 | 90 | 100 | 0.9 | 0.9 | 0.00 | 0.00 | 0.01 | ||
| 20260901174205 | 89 | 115 | 1.7 | 0.9 | 0.00 | 0.00 | 0.01 | ||
| 20260901173705 | 89 | 87 | 1.7 | 0.9 | 0.00 | 0.00 | 0.01 | ||
| 20260901173202 | 89 | 100 | 0.0 | 2.6 | 0.00 | 0.00 | 0.01 | ||
| 20260901172702 | 89 | 103 | 0.9 | 0.0 | 0.00 | 0.00 | 0.01 | ||
| 20260901172201 | 89 | 138 | 0.9 | 3.5 | 0.00 | 0.00 | 0.01 | ||
| 20260901171701 | 89 | 55 | 0.0 | 0.0 | 0.00 | 0.00 | 0.01 | ||
| 20260901171200 | 88 | 84 | 0.9 | 3.5 | 0.00 | 0.00 | 0.01 | ||
| 20260901170701 | 89 | 141 | 4.3 | 4.3 | 0.00 | 0.00 | 0.01 | ||
| 20260901170159 | 89 | 128 | 5.2 | 4.3 | 0.00 | 0.00 | 0.01 | ||
| 20260901165659 | 89 | 55 | 0.0 | 0.0 | 0.00 | 0.00 | 0.01 | ||
| 20260901165156 | 88 | 148 | 2.6 | 4.3 | 0.00 | 0.00 | 0.01 | ||
| 20260901164657 | 89 | 101 | 0.9 | 1.7 | 0.00 | 0.00 | 0.01 | ||
| 20260901164155 | 89 | 107 | 1.7 | 1.7 | 0.00 | 0.00 | 0.01 | ||
| 20260901163656 | 89 | 105 | 1.7 | 0.9 | 0.00 | 0.00 | 0.01 | ||
| 20260901163154 | 89 | 75 | 0.9 | 0.9 | 0.00 | 0.00 | 0.01 | ||
| 20260901162655 | 89 | 72 | 0.0 | 0.0 | 0.00 | 0.00 | 0.01 | ||
| 20260901162153 | 89 | 72 | 3.5 | 2.6 | 0.00 | 0.00 | 0.01 | ||
| 20260901161654 | 90 | 96 | 1.7 | 1.7 | 0.00 | 0.00 | 0.01 | ||
| 20260901161152 | 90 | 285 | 0.9 | 0.0 | 0.00 | 0.00 | 0.01 | ||
| 20260901160653 | 90 | 277 | 0.9 | 0.0 | 0.00 | 0.00 | 0.01 | ||
| 20260901160151 | 89 | 200 | 0.0 | 0.9 | 0.00 | 0.00 | 0.01 | ||
| 20260901155652 | 88 | 25 | 0.0 | 0.0 | 0.00 | 0.00 | 0.01 | ||
| 20260901155149 | 89 | 25 | 0.9 | 0.0 | 0.00 | 0.00 | 0.01 | ||
| 20260901154650 | 88 | 308 | 0.0 | 0.0 | 0.00 | 0.00 | 0.01 | ||
| 20260901152648 | 86 | 34 | 0.0 | 0.0 | 0.00 | 0.00 | 0.01 | ||
| 20260901152146 | 85 | 100 | 2.6 | 3.5 | 0.00 | 0.00 | 0.01 | ||
| 20260901151146 | 85 | 104 | 4.3 | 3.5 | 0.00 | 0.00 | 0.01 | ||
| 20260901150647 | 85 | 141 | 2.6 | 1.7 | 0.00 | 0.00 | 0.01 | ||
| 20260901150145 | 85 | 96 | 2.6 | 1.7 | 0.00 | 0.00 | 0.01 | ||
| 20260901145646 | 84 | 98 | 3.5 | 2.6 | 0.00 | 0.00 | 0.01 | ||
| 20260901145144 | 84 | 84 | 3.5 | 3.5 | 0.00 | 0.00 | 0.01 | ||
| 20260901144645 | 85 | 103 | 1.7 | 1.7 | 0.00 | 0.00 | 0.01 | ||
| 20260901144141 | 84 | 176 | 0.0 | 0.0 | 0.00 | 0.00 | 0.01 | ||
| 20260901143642 | 83 | 238 | 0.9 | 0.9 | 0.00 | 0.00 | 0.01 | ||
| 20260901143140 | 83 | 231 | 0.0 | 0.0 | 0.00 | 0.00 | 0.01 | ||
| 20260901142139 | 82 | 98 | 0.0 | 0.0 | 0.00 | 0.00 | 0.01 | ||
| 20260901141640 | 82 | 98 | 0.0 | 0.0 | 0.00 | 0.00 | 0.01 | ||
| 20260901141237 | 80 | 98 | 0.0 | 0.0 | 0.00 | 0.00 | 0.01 | ||
| 20260901141137 | 81 | 98 | 0.0 | 0.0 | 0.00 | 0.00 | 0.01 | ||
| 20260901140135 | 80 | 98 | 0.0 | 0.0 | 0.00 | 0.00 | 0.01 | ||
| 20260901135525 | 80 | 97 | 1.7 | 1.7 | 0.00 | 0.00 | 0.01 | ||
| 20260901135134 | 80 | 97 | 1.7 | 1.7 | 0.00 | 0.00 | 0.01 | ||
| 20260901134817 | 80 | 101 | 2.6 | 2.6 | 0.00 | 0.00 | 0.01 | ||
| 20260901134635 | 80 | 101 | 2.6 | 2.6 | 0.00 | 0.00 | 0.01 | ||
| 20260901134131 | 80 | 82 | 0.0 | 0.0 | 0.00 | 0.00 | 0.01 | ||
| 20260901133127 | 80 | 96 | 0.0 | 0.0 | 0.00 | 0.00 | 0.01 | ||
| 20260901132127 | 79 | 96 | 0.0 | 0.0 | 0.00 | 0.00 | 0.01 | ||
| 20260901131731 | 79 | 96 | 0.0 | 0.0 | 0.00 | 0.00 | 0.01 | ||
| 20260901131628 | 79 | 96 | 0.0 | 0.0 | 0.00 | 0.00 | 0.01 | ||
| 20260901131203 | 79 | 96 | 0.0 | 0.0 | 0.00 | 0.00 | 0.01 | ||
| 20260901131124 | 79 | 96 | 0.0 | 0.0 | 0.00 | 0.00 | 0.01 | ||
| 20260901130741 | 79 | 87 | 0.0 | 0.9 | 0.00 | 0.00 | 0.01 | ||
| 20260901130625 | 79 | 87 | 0.0 | 0.9 | 0.00 | 0.00 | 0.01 | ||
| 20260901130333 | 77 | 107 | 0.0 | 0.0 | 0.00 | 0.00 | 0.01 | ||
| 20260901130331 | 77 | 107 | 0.0 | 0.0 | 0.00 | 0.00 | 0.01 | ||
| 20260901130300 | 77 | 107 | 0.0 | 0.0 | 0.00 | 0.00 | 0.01 | ||
| 20260901130258 | 77 | 107 | 0.0 | 0.0 | 0.00 | 0.00 | 0.01 | ||
| 20260901125624 | 78 | 107 | 0.0 | 0.0 | 0.00 | 0.00 | 0.01 | ||
| 20260901125119 | 78 | 107 | 0.0 | 0.0 | 0.00 | 0.00 | 0.01 | ||
| 20260901124621 | 78 | 107 | 0.0 | 0.0 | 0.00 | 0.00 | 0.01 | ||
| 20260901123618 | 77 | 107 | 0.0 | 0.0 | 0.00 | 0.00 | 0.01 | ||
| 20260901123311 | 77 | 107 | 0.0 | 0.0 | 0.00 | 0.00 | 0.01 | ||
| 20260901123240 | 77 | 107 | 0.0 | 0.0 | 0.00 | 0.00 | 0.01 | ||
| 20260901123112 | 77 | 107 | 0.0 | 0.0 | 0.00 | 0.00 | 0.01 | ||
| 20260901122613 | 77 | 107 | 0.0 | 0.0 | 0.00 | 0.00 | 0.01 | ||
| 20260901122114 | 76 | 107 | 0.0 | 0.0 | 0.00 | 0.00 | 0.01 | ||
| 20260901121613 | 76 | 107 | 0.0 | 0.0 | 0.00 | 0.00 | 0.01 | ||
| 20260901121108 | 75 | 107 | 0.0 | 0.0 | 0.00 | 0.00 | 0.01 | ||
| 20260901120609 | 76 | 107 | 0.0 | 0.0 | 0.00 | 0.00 | 0.01 | ||
| 20260901114103 | 74 | 107 | 0.0 | 0.0 | 0.00 | 0.00 | 0.01 | ||
| 20260901113655 | 74 | 107 | 0.0 | 0.0 | 0.00 | 0.00 | 0.01 | ||
| 20260901113605 | 74 | 107 | 0.0 | 0.0 | 0.00 | 0.00 | 0.01 | ||
| 20260901112708 | 75 | 107 | 0.0 | 0.0 | 0.00 | 0.00 | 0.01 | ||
| 20260901112603 | 75 | 107 | 0.0 | 0.0 | 0.00 | 0.00 | 0.01 | ||
| 20260901112545 | 75 | 107 | 0.0 | 0.0 | 0.00 | 0.00 | 0.01 | ||
| 20260901112442 | 75 | 107 | 0.0 | 0.0 | 0.00 | 0.00 | 0.01 | ||
| 20260901112059 | 75 | 107 | 0.0 | 0.0 | 0.00 | 0.00 | 0.01 | ||
| 20260901111600 | 75 | 107 | 0.0 | 0.0 | 0.00 | 0.00 | 0.01 | ||
| 20260901111056 | 74 | 107 | 0.0 | 0.0 | 0.00 | 0.00 | 0.01 | ||
| 20260901110557 | 75 | 107 | 0.0 | 0.0 | 0.00 | 0.00 | 0.01 | ||
| 20260901105634 | 75 | 107 | 0.0 | 0.0 | 0.00 | 0.00 | 0.01 | ||
| 20260901105557 | 75 | 107 | 0.0 | 0.0 | 0.00 | 0.00 | 0.01 | ||
| 20260901105055 | 75 | 107 | 0.0 | 0.0 | 0.00 | 0.00 | 0.01 | ||
| 20260901104050 | 74 | 107 | 0.0 | 0.0 | 0.00 | 0.00 | 0.01 | ||
| 20260901103551 | 74 | 107 | 0.0 | 0.0 | 0.00 | 0.00 | 0.01 | ||
| 20260901102936 | 74 | 107 | 0.0 | 0.0 | 0.00 | 0.00 | 0.01 | ||
| 20260901102900 | 74 | 107 | 0.0 | 0.0 | 0.00 | 0.00 | 0.01 | ||
| 20260901102550 | 74 | 107 | 0.0 | 0.0 | 0.00 | 0.00 | 0.01 | ||
| 20260901102048 | 75 | 107 | 0.0 | 0.0 | 0.00 | 0.00 | 0.01 | ||
| 20260901101350 | 75 | 107 | 0.0 | 0.0 | 0.00 | 0.00 | 0.01 | ||
| 20260901101317 | 75 | 107 | 0.0 | 0.0 | 0.00 | 0.00 | 0.01 | ||
| 20260901101244 | 75 | 107 | 0.0 | 0.0 | 0.00 | 0.00 | 0.01 | ||
| 20260901101045 | 75 | 107 | 0.0 | 0.0 | 0.00 | 0.00 | 0.01 | ||
| 20260901095545 | 75 | 107 | 0.0 | 0.0 | 0.00 | 0.00 | 0.01 | ||
| 20260901094617 | 75 | 107 | 0.0 | 0.0 | 0.00 | 0.00 | 0.01 | ||
| 20260901094541 | 75 | 107 | 0.0 | 0.0 | 0.00 | 0.00 | 0.01 | ||
| 20260901093600 | 75 | 107 | 0.0 | 0.0 | 0.00 | 0.00 | 0.01 | ||
| 20260901093539 | 75 | 107 | 0.0 | 0.0 | 0.00 | 0.00 | 0.01 | ||
| 20260901093526 | 75 | 107 | 0.0 | 0.0 | 0.00 | 0.00 | 0.01 | ||
| 20260901093446 | 75 | 107 | 0.0 | 0.0 | 0.00 | 0.00 | 0.01 | ||
| 20260901092538 | 76 | 107 | 0.0 | 0.0 | 0.00 | 0.00 | 0.01 | ||
| 20260901091536 | 75 | 107 | 0.0 | 0.0 | 0.00 | 0.00 | 0.01 | ||
| 20260901091118 | 75 | 107 | 0.0 | 0.0 | 0.00 | 0.00 | 0.01 | ||
| 20260901091031 | 75 | 107 | 0.0 | 0.0 | 0.00 | 0.00 | 0.01 | ||
| 20260901090531 | 75 | 107 | 0.0 | 0.0 | 0.00 | 0.00 | 0.01 | ||
| 20260901090029 | 76 | 107 | 0.0 | 0.0 | 0.00 | 0.00 | 0.01 | ||
| 20260901085100 | 74 | 107 | 0.0 | 0.0 | 0.00 | 0.00 | 0.01 | ||
| 20260901085026 | 74 | 107 | 0.0 | 0.0 | 0.00 | 0.00 | 0.01 | ||
| 20260901083523 | 76 | 107 | 0.0 | 0.0 | 0.00 | 0.00 | 0.01 | ||
| 20260901083508 | 75 | 107 | 0.0 | 0.0 | 0.01 | 0.00 | 0.01 | ||
| 20260901083017 | 75 | 107 | 0.0 | 0.0 | 0.01 | 0.00 | 0.01 | ||
| 20260901082911 | 75 | 107 | 0.0 | 0.0 | 0.01 | 0.00 | 0.01 | ||
| 20260901082909 | 75 | 107 | 0.0 | 0.0 | 0.01 | 0.00 | 0.01 | ||
| 20260901082610 | 75 | 107 | 0.0 | 0.0 | 0.01 | 0.00 | 0.01 | ||
| 20260901082518 | 75 | 107 | 0.0 | 0.0 | 0.01 | 0.00 | 0.01 | ||
| 20260901081552 | 75 | 107 | 0.0 | 0.0 | 0.01 | 0.00 | 0.01 | ||
| 20260901081513 | 75 | 107 | 0.0 | 0.0 | 0.01 | 0.00 | 0.01 | ||
| 20260901081011 | 75 | 107 | 0.0 | 0.0 | 0.01 | 0.00 | 0.01 | ||
| 20260901080951 | 75 | 107 | 0.0 | 0.0 | 0.01 | 0.00 | 0.01 | ||
| 20260901080948 | 75 | 107 | 0.0 | 0.0 | 0.01 | 0.00 | 0.01 | ||
| 20260901080853 | 75 | 107 | 0.0 | 0.0 | 0.01 | 0.00 | 0.01 | ||
| 20260901080847 | 75 | 107 | 0.0 | 0.0 | 0.01 | 0.00 | 0.01 | ||
| 20260901080042 | 75 | 107 | 0.0 | 0.0 | 0.01 | 0.00 | 0.01 | ||
| 20260901080008 | 75 | 107 | 0.0 | 0.0 | 0.01 | 0.00 | 0.01 | ||
| 20260901074508 | 75 | 107 | 0.0 | 0.0 | 0.01 | 0.00 | 0.01 | ||
| 20260901074005 | 75 | 107 | 0.0 | 0.0 | 0.01 | 0.00 | 0.01 | ||
| 20260901073506 | 75 | 107 | 0.0 | 0.0 | 0.01 | 0.00 | 0.01 | ||
| 20260901073004 | 75 | 107 | 0.0 | 0.0 | 0.00 | 0.00 | 0.01 | ||
| 20260901072809 | 75 | 107 | 0.0 | 0.0 | 0.00 | 0.00 | 0.01 | ||
| 20260901072623 | 75 | 107 | 0.0 | 0.0 | 0.00 | 0.00 | 0.01 | ||
| 20260901072506 | 74 | 107 | 0.0 | 0.0 | 0.00 | 0.00 | 0.01 | ||
| 20260901072114 | 75 | 107 | 0.0 | 0.0 | 0.00 | 0.00 | 0.01 | ||
| 20260901072000 | 75 | 107 | 0.0 | 0.0 | 0.00 | 0.00 | 0.01 | ||
| 20260901071027 | 75 | 107 | 0.0 | 0.0 | 0.00 | 0.00 | 0.01 | ||
| 20260901071022 | 75 | 107 | 0.0 | 0.0 | 0.00 | 0.00 | 0.00 | ||
| 20260901070956 | 75 | 107 | 0.0 | 0.0 | 0.00 | 0.00 | 0.01 | ||
| 20260901070943 | 75 | 107 | 0.0 | 0.0 | 0.00 | 0.00 | 0.00 | ||
| 20260901070901 | 75 | 107 | 0.0 | 0.0 | 0.00 | 0.00 | 0.00 | ||
| 20260901070528 | 75 | 107 | 0.0 | 0.0 | 0.00 | 0.00 | 0.01 | ||
| 20260901070457 | 75 | 107 | 0.0 | 0.0 | 0.00 | 0.00 | 0.01 | ||
| 20260901070032 | 75 | 107 | 0.0 | 0.0 | 0.00 | 0.00 | 0.00 | ||
| 20260901065953 | 75 | 107 | 0.0 | 0.0 | 0.00 | 0.00 | 0.00 | ||
| 20260901065556 | 75 | 107 | 0.0 | 0.0 | 0.00 | 0.00 | 0.00 | ||
| 20260901065454 | 75 | 107 | 0.0 | 0.0 | 0.00 | 0.00 | 0.00 | ||
| 20260901065023 | 75 | 107 | 0.0 | 0.0 | 0.00 | 0.00 | 0.00 | ||
| 20260901064950 | 75 | 107 | 0.0 | 0.0 | 0.00 | 0.00 | 0.00 | ||
| 20260901064855 | 76 | 107 | 0.0 | 0.0 | 0.00 | 0.00 | 0.00 | ||
| 20260901064816 | 75 | 107 | 0.0 | 0.0 | 0.00 | 0.00 | 0.00 | ||
| 20260901064745 | 75 | 107 | 0.0 | 0.0 | 0.00 | 0.00 | 0.00 | ||
| 20260901064450 | 75 | 107 | 0.0 | 0.0 | 0.00 | 0.00 | 0.00 | ||
| 20260901064024 | 75 | 107 | 0.0 | 0.0 | 0.00 | 0.00 | 0.00 | ||
| 20260901063948 | 75 | 107 | 0.0 | 0.0 | 0.00 | 0.00 | 0.00 | ||
| 20260901063448 | 76 | 107 | 0.0 | 0.0 | 0.00 | 0.00 | 0.00 | ||
| 20260901062848 | 76 | 107 | 0.0 | 0.0 | 0.00 | 0.01 | 0.00 | ||
| 20260901062801 | 76 | 107 | 0.0 | 0.0 | 0.00 | 0.01 | 0.00 | ||
| 20260901061442 | 76 | 107 | 0.0 | 0.0 | 0.00 | 0.01 | 0.00 | ||
| 20260901060939 | 76 | 107 | 0.0 | 0.0 | 0.00 | 0.01 | 0.00 | ||
| 20260901060532 | 76 | 107 | 0.0 | 0.0 | 0.00 | 0.01 | 0.00 | ||
| 20260901060441 | 76 | 107 | 0.0 | 0.0 | 0.00 | 0.01 | 0.00 | ||
| 20260901055937 | 76 | 107 | 0.0 | 0.0 | 0.00 | 0.01 | 0.00 | ||
| 20260901055024 | 76 | 107 | 0.0 | 0.0 | 0.00 | 0.01 | 0.00 | ||
| 20260901054935 | 76 | 107 | 0.0 | 0.0 | 0.00 | 0.01 | 0.00 | ||
| 20260901053434 | 76 | 107 | 0.0 | 0.0 | 0.00 | 0.01 | 0.00 | ||
| 20260901052930 | 76 | 107 | 0.0 | 0.0 | 0.00 | 0.01 | 0.00 | ||
| 20260901051425 | 76 | 107 | 0.0 | 0.0 | 0.00 | 0.01 | 0.00 | ||
| 20260901042943 | 77 | 107 | 0.0 | 0.0 | 0.00 | 0.01 | 0.00 | ||
| 20260901042909 | 77 | 107 | 0.0 | 0.0 | 0.00 | 0.01 | 0.00 | ||
| 20260901041941 | 77 | 107 | 0.0 | 0.0 | 0.00 | 0.01 | 0.00 | ||
| 20260901041906 | 77 | 107 | 0.0 | 0.0 | 0.00 | 0.01 | 0.00 | ||
| 20260901040908 | 77 | 107 | 0.0 | 0.0 | 0.00 | 0.01 | 0.00 | ||
| 20260901040406 | 77 | 107 | 0.0 | 0.0 | 0.00 | 0.01 | 0.00 | ||
| 20260901035857 | 77 | 107 | 0.0 | 0.0 | 0.00 | 0.01 | 0.00 | ||
| 20260901035358 | 77 | 107 | 0.0 | 0.0 | 0.00 | 0.01 | 0.00 | ||
| 20260901034945 | 77 | 107 | 0.0 | 0.0 | 0.00 | 0.01 | 0.00 | ||
| 20260901034855 | 77 | 107 | 0.0 | 0.0 | 0.00 | 0.01 | 0.00 | ||
| 20260901034357 | 78 | 107 | 0.0 | 0.0 | 0.00 | 0.01 | 0.00 | ||
| 20260901033852 | 78 | 107 | 0.0 | 0.0 | 0.00 | 0.01 | 0.00 | ||
| 20260901032352 | 78 | 107 | 0.0 | 0.0 | 0.00 | 0.01 | 0.00 | ||
| 20260901031351 | 77 | 107 | 0.0 | 0.0 | 0.00 | 0.01 | 0.00 | ||
| 20260901030847 | 78 | 107 | 0.0 | 0.0 | 0.00 | 0.01 | 0.00 | ||
| 20260901030347 | 78 | 107 | 0.0 | 0.0 | 0.00 | 0.01 | 0.00 | ||
| 20260901025346 | 78 | 107 | 0.0 | 0.0 | 0.00 | 0.01 | 0.00 | ||
| 20260901024020 | 78 | 107 | 0.0 | 0.0 | 0.00 | 0.01 | 0.00 | ||
| 20260901023837 | 78 | 107 | 0.0 | 0.0 | 0.00 | 0.01 | 0.00 | ||
| 20260901023334 | 78 | 107 | 0.0 | 0.0 | 0.00 | 0.01 | 0.00 | ||
| 20260901022832 | 78 | 107 | 0.0 | 0.0 | 0.00 | 0.01 | 0.00 |